This demonstration page uses our WeatherBlox Daily Observations layout. Learn more.

38.88101, -77.10428

Hourly Observations for June 20, 2019

Temp ( °F °C ) Dew Point ( °F °C ) Humidity (%) Winds ( mph kmh ) Pressure ( in mb ) Visibility ( mi km ) Precip ( " mm )
12:52 am 00:52 Mostly Cloudy 77 25 73 22.8 88 88 S 9 15 29.68 1005 10 16.0934 0 0.0254
1:52 am 01:52 Mostly Cloudy 76 24.4 73 22.8 91 91 S 9 15 29.66 1004 10 16.0934 0 0
2:52 am 02:52 Mostly Cloudy 76 24.4 72 22.2 88 88 S 8 13 29.64 1004 10 16.0934 0 0
3:20 am 03:20 Cloudy 76 24.4 72 22.2 88 88 S 9 15 29.63 1003 10 16.0934 0 0
3:52 am 03:52 Cloudy 76 24.4 73 22.8 91 91 S 9 15 29.63 1003 10 16.0934 0 0
4:52 am 04:52 Cloudy 76 24.4 73 22.8 91 91 S 9 15 29.62 1003 10 16.0934 0 0
5:05 am 05:05 Cloudy 76 24.4 72 22.2 88 88 S 8 13 29.63 1003 10 16.0934 0 0
5:32 am 05:32 Cloudy 76 24.4 72 22.2 88 88 S 9 15 29.62 1003 10 16.0934 0 0
5:52 am 05:52 Cloudy 76 24.4 72 22.2 88 88 S 8 13 29.63 1003 10 16.0934 0 0
6:08 am 06:08 Cloudy 76 24.4 72 22.2 88 88 SSW 7 11 29.63 1003 10 16.0934 0 0
6:45 am 06:45 Cloudy 76 24.4 73 22.8 91 91 S 7 11 29.62 1003 10 16.0934 0 0
6:52 am 06:52 Cloudy 76 24.4 73 22.8 91 91 S 7 11 29.62 1003 10 16.0934 0 0
7:22 am 07:22 Cloudy 77 25 73 22.8 88 88 S 9 15 29.63 1003 10 16.0934 0 0
7:52 am 07:52 Cloudy 77 25 73 22.8 88 88 S 8 13 29.63 1003 10 16.0934 0 0
8:37 am 08:37 Cloudy 79 26.1 73 22.8 82 82 SSW 9 15 29.63 1003 10 16.0934 0 0
8:52 am 08:52 Mostly Cloudy 79 26.1 73 22.8 82 82 SSW 8 13 29.62 1003 10 16.0934 0 0
9:03 am 09:03 Mostly Cloudy 79 26.1 72 22.2 79 79 SW 8 13 29.62 1003 10 16.0934 0 0
9:52 am 09:52 Mostly Cloudy 82 27.8 73 22.8 74 74 WSW 9 15 29.62 1003 10 16.0934 0 0
10:52 am 10:52 Mostly Cloudy 83 28.3 74 23.3 74 74 SSE 9 15 29.6 1003 10 16.0934 0 0
11:52 am 11:52 Mostly Cloudy 87 30.6 72 22.2 61 61 WSW 13 20 29.59 1002 10 16.0934 0 0
12:52 pm 12:52 Mostly Cloudy 86 30 69 20.6 57 57 WSW 18 30 29.57 1002 10 16.0934 0 0
2:52 pm 14:52 Partly Cloudy 90 32.2 68 20 48 48 WSW 17 28 29.53 1000 10 16.0934 0 0
3:52 pm 15:52 Partly Cloudy 92 33.3 67 19.4 44 44 W 16 26 29.52 1000 10 16.0934 0 0
4:52 pm 16:52 Mostly Cloudy 89 31.7 67 19.4 48 48 WSW 17 28 29.52 1000 10 16.0934 0 0
5:52 pm 17:52 Mostly Cloudy 89 31.7 66 18.9 47 47 W 13 20 29.5 999 10 16.0934 0 0.0254
6:18 pm 18:18 Mostly Cloudy 88 31.1 66 18.9 48 48 WSW 13 20 29.5 999 10 16.0934 0 0
6:52 pm 18:52 Mostly Cloudy with Light Rain 87 30.6 67 19.4 51 51 WNW 9 15 29.51 999 10 16.0934 0 0.0254
7:12 pm 19:12 Mostly Cloudy with Light Rain 80 26.7 69 20.6 69 69 SW 16 26 29.52 1000 10 16.0934 0 0.0254
7:52 pm 19:52 Mostly Cloudy 77 25 70 21.1 79 79 S 14 22 29.54 1000 10 16.0934 0 0.0254
8:52 pm 20:52 Cloudy 78 25.6 67 19.4 69 69 SSW 9 15 29.55 1001 10 16.0934 0 0
9:52 pm 21:52 Cloudy with Light Rain 75 23.9 70 21.1 84 84 SW 12 19 29.58 1002 7 11.26538 0.07 1.778
10:52 pm 22:52 Cloudy 74 23.3 68 20 82 82 SSW 8 13 29.57 1001 10 16.0934 0.01 0.254
11:52 pm 23:52 Cloudy 74 23.3 70 21.1 88 88 SW 7 11 29.57 1001 10 16.0934 0 0

Powered by AerisWeather